[[{"header":{"parameterUnit":"m.s-1","parameterCategory":1,"la1":30.2991,"la2":30.254,"lo1":-89.0895,"lo2":-89.0444,"dy":0.0017,"dx":0.0017,"nx":28,"ny":28,"refTime":"2025-02-25T09:00:00:Z","depth":0,"parameterNumber":2,"parameterNumberName":"U-component_of_WINDS"},"data":[0,0,0,0,0,0,0,0,0,0,0,0,0,0,0,0,0,0,0,0,0,0,0,0,0,0,0,0,0,0,0,0,0,0,0,0,0,0,0,0,0,0,0,0,0,0,0,0,0,0,0,0,0,0,0,0,0,0,-0.3799,-0.3799,0,-0.3774,-0.3773,-0.3773,-0.3763,-0.3763,-0.3763,-0.3763,-0.3735,-0.3735,-0.3734,0,0,0,0,0,0,0,0,0,0,0,0,0,-0.3839,-0.3838,-0.3799,-0.3799,-0.3799,-0.3774,-0.3773,-0.3773,-0.3763,-0.3763,-0.3763,-0.3763,-0.3736,-0.3735,-0.3734,0,0,0,0,0,0,0,0,0,0,0,0,0,-0.3818,-0.3838,-0.3799,-0.3791,-0.379,-0.3774,-0.3773,-0.3773,-0.3763,-0.3763,-0.3763,-0.3763,-0.3736,-0.3735,-0.3734,-0.3724,0,0,-0.373,-0.3729,0,0,0,0,0,0,0,0,-0.382,-0.3817,-0.3792,-0.3791,-0.379,-0.3772,-0.3777,-0.3756,-0.3763,-0.3773,-0.3763,-0.3763,-0.3747,-0.3745,-0.374,-0.3722,-0.3721,-0.373,-0.3729,-0.3728,-0.3728,0,0,0,0,0,0,0,-0.3821,-0.3818,-0.3789,-0.3792,-0.3791,-0.3788,-0.3785,-0.3773,-0.376,-0.3772,-0.3771,-0.3769,-0.3747,-0.3741,-0.3739,-0.3721,-0.373,-0.3729,-0.3728,-0.3727,-0.3695,-0.3695,0,0,0,0,0,0,-0.3824,-0.3819,-0.379,-0.3788,-0.3806,-0.3787,-0.3784,-0.3777,-0.376,-0.3757,-0.3769,-0.3768,-0.3743,-0.3741,-0.3738,-0.3726,-0.3728,-0.3727,-0.3727,-0.3695,-0.3695,-0.3695,0,0,0,0,0,0,-0.3825,-0.3822,-0.3791,-0.3804,-0.38,-0.3786,-0.3779,-0.3777,-0.3771,-0.3757,-0.3755,-0.3765,-0.3743,-0.374,-0.3728,-0.3725,-0.3727,-0.3726,-0.3696,-0.3695,-0.3695,-0.3702,0,0,0,0,0,0,-0.3826,-0.3822,-0.3818,-0.3804,-0.3799,-0.3781,-0.3779,-0.3776,-0.377,-0.3769,-0.3754,-0.3751,-0.3743,-0.373,-0.3727,-0.3723,-0.3725,-0.3696,-0.3696,-0.3695,-0.3702,-0.3702,-0.3702,0,0,0,0,0,-0.3828,-0.382,-0.3818,-0.3814,-0.3794,-0.3781,-0.3778,-0.3769,-0.3769,-0.3765,-0.3757,-0.3752,-0.3726,-0.3729,-0.3725,-0.3721,-0.3696,-0.3696,-0.3695,-0.3702,-0.3702,-0.3702,0,0,0,0,0,0,-0.3833,-0.3818,-0.3815,-0.3803,-0.3794,-0.3779,-0.3774,-0.377,-0.3759,-0.3759,-0.3748,-0.3745,-0.3734,-0.3727,-0.3729,-0.3712,-0.3711,-0.371,-0.3717,-0.3717,-0.3717,-0.3719,-0.3724,0,0,0,0,0,-0.3834,-0.3825,-0.3812,-0.3802,-0.3798,-0.3787,-0.3781,-0.3775,-0.3764,-0.376,-0.375,-0.374,-0.373,-0.3723,-0.3713,-0.3701,-0.3698,-0.3697,-0.3697,-0.3697,-0.3696,-0.3691,-0.369,-0.3694,-0.3694,-0.3694,0,0,-0.3833,-0.3824,-0.3818,-0.3803,-0.3795,-0.3786,-0.3783,-0.3773,-0.3767,-0.3758,-0.3747,-0.3739,-0.3727,-0.3716,-0.371,-0.3709,-0.3695,-0.3697,-0.3697,-0.3696,-0.369,-0.369,-0.369,-0.3694,-0.3694,-0.3694,0,0,-0.3828,-0.382,-0.3811,-0.3804,-0.3792,-0.3785,-0.3783,-0.377,-0.3765,-0.3754,-0.3748,-0.374,-0.3722,-0.3714,-0.3707,-0.3701,-0.3696,-0.3698,-0.3698,-0.3693,-0.3693,-0.3692,-0.369,-0.369,-0.3697,-0.3697,-0.3697,0,-0.3828,-0.3815,-0.3807,-0.3799,-0.3792,-0.3786,-0.3777,-0.377,-0.3755,-0.3751,-0.3751,-0.373,-0.3721,-0.3708,-0.3707,-0.3701,-0.3699,-0.3699,-0.3693,-0.3693,-0.3693,-0.3691,-0.369,-0.3698,-0.3698,-0.3698,-0.3698,0,-0.3817,-0.3808,-0.3802,-0.3789,-0.3783,-0.3774,-0.3765,-0.3759,-0.3755,-0.3748,-0.3737,-0.3727,-0.3715,-0.3711,-0.3706,-0.3698,-0.3698,-0.3696,-0.3694,-0.3693,-0.3691,-0.369,-0.3698,-0.3698,-0.3698,-0.3698,0,0,-0.3813,-0.3797,-0.3795,-0.379,-0.3778,-0.377,-0.3762,-0.3751,-0.3746,-0.3737,-0.373,-0.3716,-0.3715,-0.3707,-0.3702,-0.3697,-0.3694,-0.3695,-0.3695,-0.3695,-0.3684,-0.3686,-0.3685,-0.3691,-0.3691,-0.3691,-0.3685,0,-0.3806,-0.379,-0.3784,-0.3772,-0.3764,-0.3759,-0.3752,-0.3743,-0.3737,-0.3729,-0.3723,-0.3713,-0.3712,-0.3708,-0.3703,-0.3695,-0.3691,-0.3695,-0.3684,-0.3684,-0.3687,-0.3684,-0.3685,-0.368,-0.3685,-0.3684,-0.3684,0,-0.3795,-0.3787,-0.3774,-0.3764,-0.376,-0.3754,-0.3744,-0.3737,-0.3728,-0.3724,-0.3717,-0.3712,-0.3703,-0.3704,-0.3692,-0.3695,-0.369,-0.3686,-0.3685,-0.3683,-0.3683,-0.3682,-0.3679,-0.3678,-0.3683,-0.3683,-0.3683,0,-0.3793,-0.3779,-0.377,-0.3765,-0.3753,-0.3749,-0.3744,-0.3735,-0.373,-0.3721,-0.3718,-0.3708,-0.3703,-0.3696,-0.3689,-0.3689,-0.3678,-0.3677,-0.3674,-0.3674,-0.3671,-0.3671,-0.3667,-0.3668,-0.3668,-0.3669,-0.3669,0,-0.3786,-0.3778,-0.3769,-0.3763,-0.3755,-0.3749,-0.3741,-0.3735,-0.3727,-0.3721,-0.3716,-0.3709,-0.3701,-0.3693,-0.3688,-0.3679,-0.3677,-0.3673,-0.3672,-0.3673,-0.3674,-0.3669,-0.3669,-0.3668,-0.3668,-0.3668,-0.3668,0,-0.3782,-0.3776,-0.3765,-0.3756,-0.3753,-0.3747,-0.3739,-0.3733,-0.3728,-0.372,-0.3717,-0.3709,-0.37,-0.3693,-0.3681,-0.3677,-0.3668,-0.3667,-0.3671,-0.3671,-0.3668,-0.3668,-0.366,-0.3659,-0.3662,-0.3662,-0.3662,0,-0.3777,-0.3771,-0.3762,-0.3757,-0.3752,-0.3745,-0.374,-0.3734,-0.3728,-0.3719,-0.3714,-0.3706,-0.3698,-0.3685,-0.3677,-0.3669,-0.3667,-0.3665,-0.3665,-0.3667,-0.3666,-0.3667,-0.3666,-0.3664,-0.3664,-0.3664,-0.3664,0,-0.377,-0.3767,-0.376,-0.3752,-0.3747,-0.374,-0.3733,-0.373,-0.3722,-0.3717,-0.3708,-0.3703,-0.3692,-0.3683,-0.3674,-0.3669,-0.3665,-0.3664,-0.3663,-0.3664,-0.3668,-0.3666,-0.3671,-0.3664,-0.3664,-0.3664,-0.3664,-0.3664,-0.3765,-0.376,-0.3753,-0.3746,-0.374,-0.3734,-0.3729,-0.3724,-0.3717,-0.3708,-0.3705,-0.3696,-0.3689,-0.3676,-0.3671,-0.3665,-0.3664,-0.3662,-0.3662,-0.3661,-0.3662,-0.3669,-0.3663,-0.3663,-0.3663,-0.3663,-0.3663,0,-0.3757,-0.3753,-0.3746,-0.3738,-0.3732,-0.3731,-0.3723,-0.3719,-0.3712,-0.3705,-0.3699,-0.369,-0.3682,-0.3675,-0.3666,-0.3663,-0.3661,-0.3661,-0.3661,-0.366,-0.3663,-0.3664,-0.3662,-0.3662,-0.3662,-0.3662,-0.3662,-0.3662,-0.3753,-0.3744,-0.3742,-0.3731,-0.3727,-0.3719,-0.3715,-0.371,-0.3705,-0.3695,-0.3689,-0.3685,-0.3678,-0.367,-0.3663,-0.3661,-0.3658,-0.3659,-0.3656,-0.3659,-0.3659,-0.3659,-0.3661,-0.3658,-0.3658,-0.3654,-0.3654,-0.3654]},{"header":{"parameterUnit":"m.s-1","parameterCategory":1,"la1":30.2991,"la2":30.254,"lo1":-89.0895,"lo2":-89.0444,"dy":0.0017,"dx":0.0017,"nx":28,"ny":28,"refTime":"2025-02-25T09:00:00:Z","depth":0,"parameterNumber":3,"parameterNumberName":"V-component_of_WINDS"},"data":[0,0,0,0,0,0,0,0,0,0,0,0,0,0,0,0,0,0,0,0,0,0,0,0,0,0,0,0,0,0,0,0,0,0,0,0,0,0,0,0,0,0,0,0,0,0,0,0,0,0,0,0,0,0,0,0,0,0,2.0538,2.0538,0,2.0574,2.0574,2.0575,2.0645,2.0647,2.0648,2.065,2.0681,2.0681,2.068,0,0,0,0,0,0,0,0,0,0,0,0,0,2.0527,2.0527,2.0538,2.0538,2.0539,2.0574,2.0574,2.0575,2.0645,2.0647,2.0649,2.065,2.0681,2.0681,2.068,0,0,0,0,0,0,0,0,0,0,0,0,0,2.0544,2.0527,2.0538,2.0578,2.0582,2.0574,2.0574,2.0575,2.0645,2.0647,2.0649,2.0651,2.0681,2.0681,2.068,2.0633,0,0,2.0678,2.0677,0,0,0,0,0,0,0,0,2.0543,2.0544,2.0572,2.0576,2.058,2.0607,2.0582,2.0594,2.0644,2.0621,2.065,2.0652,2.0654,2.0656,2.0658,2.0635,2.0636,2.0678,2.0677,2.0677,2.0677,0,0,0,0,0,0,0,2.0542,2.0543,2.0552,2.0572,2.0577,2.0594,2.0598,2.0585,2.0625,2.0623,2.0628,2.0632,2.0657,2.0659,2.0659,2.0636,2.0678,2.0677,2.0677,2.0676,2.0577,2.0575,0,0,0,0,0,0,2.0535,2.0542,2.0551,2.0553,2.0567,2.0592,2.0597,2.0596,2.0626,2.0632,2.063,2.0635,2.0659,2.066,2.0661,2.0609,2.0677,2.0676,2.0676,2.0579,2.0577,2.0574,0,0,0,0,0,0,2.0535,2.0535,2.055,2.0549,2.0552,2.059,2.0588,2.0596,2.0598,2.0631,2.0638,2.0624,2.066,2.0662,2.064,2.0611,2.0676,2.0675,2.0582,2.0579,2.0576,2.0503,0,0,0,0,0,0,2.0534,2.0535,2.0518,2.0548,2.0552,2.0529,2.0587,2.0595,2.0597,2.0604,2.0627,2.0633,2.0662,2.0641,2.0639,2.0611,2.0675,2.0585,2.0581,2.0577,2.0508,2.0498,2.0489,0,0,0,0,0,2.0533,2.0495,2.0517,2.0518,2.0532,2.0527,2.0529,2.0565,2.0594,2.0577,2.0599,2.0633,2.0614,2.0638,2.0637,2.0608,2.0587,2.0582,2.0577,2.0513,2.05,2.0489,0,0,0,0,0,0,2.0459,2.05,2.0524,2.0495,2.0507,2.0539,2.0519,2.055,2.0553,2.0559,2.0601,2.0606,2.0579,2.0591,2.0617,2.0564,2.0606,2.06,2.0557,2.0545,2.0536,2.0533,2.0674,0,0,0,0,0,2.0439,2.0433,2.0469,2.0439,2.0445,2.0481,2.048,2.0506,2.052,2.0525,2.0545,2.0556,2.0553,2.055,2.0549,2.0511,2.0517,2.049,2.048,2.0472,2.0467,2.0448,2.0437,2.0558,2.0558,2.0558,0,0,2.0398,2.042,2.0413,2.0425,2.0438,2.043,2.0485,2.0473,2.0468,2.0523,2.0505,2.052,2.0535,2.0505,2.0493,2.0514,2.0435,2.0466,2.0459,2.0458,2.0442,2.043,2.042,2.0555,2.0555,2.0556,0,0,2.0319,2.0335,2.0313,2.0325,2.0345,2.0369,2.0363,2.0391,2.0404,2.0386,2.0428,2.0421,2.0414,2.0424,2.0428,2.0353,2.0384,2.0351,2.03,2.0281,2.0272,2.0264,2.0237,2.0227,2.0346,2.0346,2.0346,0,2.0265,2.0257,2.0297,2.0284,2.0288,2.034,2.0317,2.0326,2.0343,2.0344,2.0369,2.0362,2.0376,2.0349,2.0331,2.0333,2.0327,2.0349,2.027,2.0262,2.0255,2.0231,2.0221,2.0342,2.0342,2.0343,2.0343,0,2.0189,2.0182,2.0162,2.0179,2.0181,2.0163,2.02,2.0196,2.0222,2.0244,2.0225,2.0244,2.0248,2.0243,2.0268,2.022,2.0233,2.0263,2.0306,2.0239,2.0217,2.0207,2.0336,2.0338,2.0339,2.034,0,0,2.0064,2.0105,2.0097,2.0106,2.0132,2.0126,2.011,2.0116,2.0112,2.0122,2.011,2.0104,2.0132,2.0136,2.0163,2.0146,2.0087,2.0179,2.018,2.0161,2.0035,2.0013,2.0001,2.0108,2.0106,2.0105,2.0034,0,1.9991,1.9968,2.0004,1.9972,1.9967,2.0016,2.0002,2.0016,2.0035,2.0032,2.0053,2.0049,2.0087,2.009,2.0076,2.0097,2.0062,2.0102,2.0095,2.0095,2.009,1.999,1.9965,1.9898,2.0026,2.0024,2.0023,0,1.9903,1.9911,1.9879,1.9908,1.9906,1.9893,1.9902,1.9899,1.9915,1.993,1.9936,1.9968,1.9953,1.9994,1.9975,2.0001,2.0001,2.001,2.0009,2.0009,2.0055,1.9987,1.9877,1.9867,2.001,2.0011,2.0012,0,1.9815,1.9818,1.9799,1.9805,1.9838,1.9828,1.9841,1.9859,1.986,1.9867,1.9869,1.9873,1.9875,1.9877,1.9909,1.9936,1.9885,1.9929,1.9897,1.9896,1.9884,1.9884,1.9772,1.9883,1.9883,1.9883,1.9883,0,1.973,1.9709,1.9761,1.9749,1.9726,1.9768,1.9744,1.9761,1.9777,1.977,1.9812,1.9803,1.9846,1.9841,1.9866,1.9846,1.9846,1.9858,1.9865,1.9854,1.9853,1.9854,1.986,1.988,1.9881,1.9881,1.9882,0,1.9628,1.9662,1.9646,1.9679,1.9686,1.9668,1.9696,1.9686,1.9709,1.9698,1.9698,1.9733,1.973,1.9763,1.9765,1.9782,1.975,1.9765,1.9745,1.975,1.9716,1.9719,1.9601,1.9588,1.9707,1.9706,1.9705,0,1.9572,1.9557,1.9589,1.9588,1.9599,1.9596,1.9598,1.9638,1.9638,1.9656,1.9644,1.9645,1.9648,1.9641,1.9666,1.9668,1.9683,1.9642,1.9684,1.9674,1.9683,1.9684,1.9682,1.9633,1.9631,1.963,1.9629,0,1.9468,1.9486,1.9489,1.9497,1.9499,1.9507,1.9517,1.9513,1.9557,1.9555,1.9553,1.9556,1.956,1.956,1.9567,1.9579,1.9611,1.9616,1.9609,1.9598,1.9587,1.9593,1.9722,1.9618,1.9619,1.962,1.9621,1.9621,1.9388,1.9377,1.9398,1.94,1.9412,1.9421,1.9414,1.9437,1.9437,1.9445,1.9468,1.9462,1.9479,1.9493,1.9502,1.9497,1.9517,1.9507,1.9504,1.9501,1.9495,1.9588,1.9499,1.9499,1.9499,1.95,1.95,0,1.9287,1.9303,1.9304,1.9319,1.9319,1.9351,1.9365,1.9363,1.9358,1.9372,1.9375,1.9373,1.9374,1.9399,1.9403,1.9394,1.9409,1.9394,1.9395,1.9397,1.9477,1.9483,1.9382,1.9382,1.9382,1.9382,1.9382,1.9382,1.9234,1.9218,1.9238,1.9229,1.9245,1.9241,1.9246,1.9255,1.9266,1.9263,1.9265,1.9282,1.93,1.9306,1.9308,1.9315,1.9314,1.9294,1.9306,1.938,1.9391,1.9402,1.9408,1.9294,1.9294,1.9227,1.9227,1.9226]}]]